Weather History for Port Heiden, AK

Change the Weather History Date:

Sunday, March 3, 2013

  Actual Average Record
Temperature  
Mean Temperature 34 °F -  
Max Temperature 37 °F 31 °F 42 °F (2008)
Min Temperature 32 °F 21 °F 1 °F (1999)
Degree Days  
Heating Degree Days 30    
Moisture  
Dew Point 28 °F    
Average Humidity 75    
Maximum Humidity 87    
Minimum Humidity 58    
Precipitation  
Precipitation 0.00 in - - ()
Sea Level Pressure  
Sea Level Pressure 29.76 in    
Wind  
Wind Speed 16 mph (ENE)    
Max Wind Speed 26 mph    
Max Gust Speed 31 mph    
Visibility 10 miles    
Events      
Averages and records for this station are not official NWS values.
T = Trace of Precipitation, MM = Missing Value Source: NWS Daily Summary

Daily Weather History Graph

Daily Weather History Graph

Search for Another Location

Airport:

Trip Planner

Search our weather history database for the weather conditions in past years. The results will help you decide how hot, cold, wet, or windy it might be!

Date:

Astronomy

Mar. 03, 2013 Rise Set
Actual Time 8:20 AM AKST 7:12 PM AKST
Civil Twilight 7:42 AM AKST 7:51 PM AKST
Nautical Twilight 6:58 AM AKST 8:35 PM AKST
Astronomical Twilight 6:13 AM AKST 9:20 PM AKST
Moon 2:21 AM AKST (3/3) 10:25 AM AKST (3/3)
Length of Visible Light 12h 08m
Length of Day
10h 51m
Waning Gibbous, 62% of the Moon is Illuminated
Mar 3
Waning Gibbous
Mar 4
Last Quarter
Mar 11
New
Mar 19
First Quarter
Mar 27
Full

Hourly Weather History & Observations

Time (AKST) Temp. Windchill Dew Point Humidity Pressure Visibility Wind Dir Wind Speed Gust Speed Precip Events Conditions
12:16 AM 37.4 °F 27.5 °F 26.6 °F 65% 29.50 in 10.0 mi East 18.4 mph 29.9 mph N/A   Overcast
12:36 AM 37.4 °F 28.5 °F 26.6 °F 65% 29.51 in 10.0 mi ENE 15.0 mph 23.0 mph N/A   Overcast
12:56 AM 37.4 °F 28.2 °F 28.4 °F 70% 29.51 in 10.0 mi ENE 16.1 mph 21.9 mph N/A   Overcast
1:16 AM 37.4 °F 28.5 °F 26.6 °F 65% 29.52 in 10.0 mi ENE 15.0 mph 19.6 mph N/A   Overcast
1:36 AM 37.4 °F 28.9 °F 26.6 °F 65% 29.53 in 10.0 mi ENE 13.8 mph 23.0 mph N/A   Overcast
1:56 AM 37.4 °F 29.3 °F 26.6 °F 65% 29.54 in 10.0 mi ENE 12.7 mph 27.6 mph N/A   Overcast
2:16 AM 37.4 °F 29.3 °F 26.6 °F 65% 29.55 in 10.0 mi East 12.7 mph 19.6 mph N/A   Overcast
2:36 AM 37.4 °F 29.3 °F 26.6 °F 65% 29.56 in 10.0 mi ENE 12.7 mph - N/A   Overcast
2:56 AM 35.6 °F 27.5 °F 28.4 °F 75% 29.57 in 10.0 mi NE 11.5 mph - N/A   Overcast
3:16 AM 35.6 °F 26.6 °F 28.4 °F 75% 29.58 in 10.0 mi NNE 13.8 mph - N/A   Overcast
3:36 AM 35.6 °F 26.6 °F 26.6 °F 70% 29.58 in 10.0 mi NE 13.8 mph - N/A   Overcast
3:56 AM 35.6 °F 27.1 °F 28.4 °F 75% 29.59 in 10.0 mi ENE 12.7 mph - N/A   Overcast
4:16 AM 35.6 °F 29.2 °F 28.4 °F 75% 29.59 in 10.0 mi NE 8.1 mph - N/A   Overcast
4:36 AM 33.8 °F 25.3 °F 28.4 °F 81% 29.60 in 10.0 mi NNE 11.5 mph - N/A   Overcast
4:56 AM 33.8 °F 25.8 °F 30.2 °F 87% 29.61 in 10.0 mi NNE 10.4 mph - N/A   Overcast
5:16 AM 33.8 °F 25.3 °F 26.6 °F 75% 29.62 in 10.0 mi NNE 11.5 mph - N/A   Overcast
5:36 AM 33.8 °F 24.3 °F 28.4 °F 81% 29.62 in 10.0 mi NE 13.8 mph - N/A   Overcast
5:56 AM 33.8 °F 24.3 °F 28.4 °F 81% 29.64 in 10.0 mi NE 13.8 mph - N/A   Overcast
6:16 AM 33.8 °F 24.3 °F 28.4 °F 81% 29.64 in 10.0 mi ENE 13.8 mph - N/A   Overcast
6:36 AM 33.8 °F 24.3 °F 28.4 °F 81% 29.65 in 10.0 mi NE 13.8 mph - N/A   Overcast
6:56 AM 33.8 °F 24.3 °F 28.4 °F 81% 29.66 in 10.0 mi NE 13.8 mph - N/A   Overcast
7:16 AM 33.8 °F 25.3 °F 28.4 °F 81% 29.66 in 10.0 mi NNE 11.5 mph - N/A   Overcast
7:36 AM 33.8 °F 25.3 °F 28.4 °F 81% 29.67 in 10.0 mi North 11.5 mph - N/A   Overcast
7:56 AM 33.8 °F 23.9 °F 28.4 °F 81% 29.67 in 10.0 mi North 15.0 mph - N/A   Overcast
8:16 AM 32.0 °F 21.2 °F 28.4 °F 87% 29.68 in 10.0 mi North 16.1 mph - N/A   Overcast
8:36 AM 32.0 °F 20.5 °F 26.6 °F 80% 29.68 in 10.0 mi NNE 18.4 mph - N/A   Overcast
8:56 AM 33.8 °F 22.8 °F 28.4 °F 81% 29.69 in 9.0 mi NNE 18.4 mph - N/A   Overcast
9:16 AM 33.8 °F 21.6 °F 26.6 °F 75% 29.70 in 7.0 mi NNE 23.0 mph - N/A   Overcast
9:36 AM 33.8 °F 21.3 °F 26.6 °F 75% 29.71 in 9.0 mi NNE 24.2 mph - N/A   Overcast
9:56 AM 33.8 °F 21.0 °F 28.4 °F 81% 29.72 in 8.0 mi NNE 25.3 mph - N/A   Overcast
10:16 AM 33.8 °F 21.6 °F 28.4 °F 81% 29.72 in 9.0 mi NNE 23.0 mph 27.6 mph N/A   Overcast
10:36 AM 33.8 °F 21.3 °F 26.6 °F 75% 29.73 in 3.0 mi NNE 24.2 mph - N/A   Overcast
10:56 AM 33.8 °F 21.9 °F 28.4 °F 81% 29.73 in 3.0 mi NE 21.9 mph 28.8 mph N/A   Overcast
11:16 AM 33.8 °F 21.6 °F 26.6 °F 75% 29.75 in 5.0 mi NE 23.0 mph - N/A   Overcast
11:36 AM 33.8 °F 21.9 °F 28.4 °F 81% 29.75 in 5.0 mi NE 21.9 mph - N/A   Overcast
11:56 AM 33.8 °F 22.5 °F 28.4 °F 81% 29.75 in 7.0 mi NE 19.6 mph - N/A   Overcast
12:16 PM 33.8 °F 22.2 °F 28.4 °F 81% 29.76 in 9.0 mi NE 20.7 mph - N/A   Overcast
12:36 PM 33.8 °F 21.9 °F 28.4 °F 81% 29.77 in 10.0 mi NE 21.9 mph - N/A   Overcast
12:56 PM 33.8 °F 22.2 °F 28.4 °F 81% 29.78 in 10.0 mi NE 20.7 mph 28.8 mph N/A   Overcast
1:16 PM 33.8 °F 22.2 °F 26.6 °F 75% 29.78 in 10.0 mi NE 20.7 mph - N/A   Overcast
1:36 PM 33.8 °F 22.2 °F 30.2 °F 87% 29.78 in 10.0 mi NE 20.7 mph 25.3 mph N/A   Overcast
1:56 PM 33.8 °F 21.9 °F 28.4 °F 81% 29.79 in 10.0 mi NE 21.9 mph - N/A   Overcast
2:16 PM 33.8 °F 21.3 °F 28.4 °F 81% 29.78 in 10.0 mi NE 24.2 mph - N/A   Overcast
2:36 PM 33.8 °F 22.2 °F 28.4 °F 81% 29.79 in 10.0 mi NE 20.7 mph - N/A   Overcast
2:56 PM 35.6 °F 25.2 °F 28.4 °F 75% 29.80 in 10.0 mi NE 18.4 mph - N/A   Overcast
3:16 PM 35.6 °F 24.0 °F 28.4 °F 75% 29.80 in 10.0 mi NE 23.0 mph - N/A   Overcast
3:36 PM 35.6 °F 24.8 °F 28.4 °F 75% 29.81 in 10.0 mi NE 19.6 mph - N/A   Overcast
3:56 PM 35.6 °F 24.5 °F 28.4 °F 75% 29.81 in 10.0 mi NE 20.7 mph - N/A   Overcast
4:16 PM 35.6 °F 25.9 °F 28.4 °F 75% 29.82 in 10.0 mi NE 16.1 mph - N/A   Overcast
4:36 PM 35.6 °F 27.1 °F 30.2 °F 81% 29.83 in 10.0 mi NE 12.7 mph - N/A   Overcast
4:56 PM 35.6 °F 28.0 °F 28.4 °F 75% 29.84 in 10.0 mi NE 10.4 mph - N/A   Mostly Cloudy
5:16 PM 35.6 °F 30.7 °F 28.4 °F 75% 29.85 in 10.0 mi ENE 5.8 mph - N/A   Scattered Clouds
5:36 PM 35.6 °F 32.8 °F 30.2 °F 81% 29.85 in 10.0 mi ESE 3.5 mph - N/A   Partly Cloudy
5:56 PM 35.6 °F 31.7 °F 30.2 °F 81% 29.86 in 10.0 mi SE 4.6 mph - N/A   Clear
6:16 PM 35.6 °F 28.6 °F 28.4 °F 75% 29.90 in 10.0 mi South 9.2 mph - N/A   Scattered Clouds
6:36 PM 37.4 °F 29.8 °F 28.4 °F 70% 29.92 in 10.0 mi South 11.5 mph - N/A   Mostly Cloudy
6:56 PM 37.4 °F 32.1 °F 28.4 °F 70% 29.93 in 10.0 mi ENE 6.9 mph - N/A   Mostly Cloudy
7:16 PM 35.6 °F 24.2 °F 28.4 °F 75% 29.92 in 10.0 mi SE 21.9 mph - N/A   Mostly Cloudy
7:36 PM 35.6 °F 25.2 °F 26.6 °F 70% 29.94 in 10.0 mi SE 18.4 mph - N/A   Partly Cloudy
7:56 PM 35.6 °F 24.0 °F 28.4 °F 75% 29.94 in 10.0 mi SE 23.0 mph - N/A   Clear
8:16 PM 37.4 °F 26.4 °F 28.4 °F 70% 29.95 in 10.0 mi SE 23.0 mph - N/A   Partly Cloudy
8:36 PM 35.6 °F 24.8 °F 26.6 °F 70% 29.96 in 10.0 mi ESE 19.6 mph - N/A   Scattered Clouds
8:56 PM 35.6 °F 24.8 °F 26.6 °F 70% 29.97 in 10.0 mi SE 19.6 mph - N/A   Mostly Cloudy
9:16 PM 35.6 °F 25.5 °F 28.4 °F 75% 29.98 in 10.0 mi SE 17.3 mph 25.3 mph N/A   Scattered Clouds
9:36 PM 35.6 °F 25.9 °F 26.6 °F 70% 30.00 in 10.0 mi SE 16.1 mph - N/A   Clear
9:56 PM 35.6 °F 24.5 °F 28.4 °F 75% 29.99 in 10.0 mi SSE 20.7 mph - N/A   Clear
10:16 PM 37.4 °F 25.9 °F 28.4 °F 70% 29.99 in 10.0 mi SSE 25.3 mph - N/A   Clear
10:36 PM 37.4 °F 25.6 °F 26.6 °F 65% 29.99 in 10.0 mi SSE 26.5 mph 31.1 mph N/A   Clear
10:56 PM 37.4 °F 25.6 °F 26.6 °F 65% 30.01 in 10.0 mi SSE 26.5 mph - N/A   Clear
11:16 PM 35.6 °F 24.8 °F 26.6 °F 70% 30.03 in 10.0 mi SSE 19.6 mph - N/A   Clear
11:36 PM 37.4 °F 28.2 °F 26.6 °F 65% 30.04 in 10.0 mi SSE 16.1 mph - N/A   Mostly Cloudy
11:56 PM 35.6 °F 27.5 °F 26.6 °F 70% 30.04 in 10.0 mi ESE 11.5 mph - N/A   Overcast